Location: ActonStarParty
(42.4766°N, 71.4538°W)
Time: 16:12:31
(UTC-04:00)

Cosmos 1140 Rocket - Pass Details

Date: 19 April 2018
Orbit: 744 x 768 km, 74.1° (Epoch: 19 September)

Event Time Altitude Azimuth Distance (km) Brightness Sun altitude
Rises 21:57:30 0° 346° (NNW) 3,224 7.7 -23.9°
Reaches altitude 10° 22:00:01 10° 353° (N) 2,290 6.6 -24.2°
Enters shadow 22:04:51 42° 62° (ENE) 1,065 4.0 -24.8°
